Regional Weather Roundup
Issued by NWS Wilmington, NC

Home | Current Version | Previous Version | Text Only | Print | Product List | Glossary On
Versions: 1 2 3 4 5 6 7 8 9 10 11 12 13 14 15 16 17 18 19 20 21 22 23 24 25 26 27 28 29 30 31 32 33 34 35 36 37 38 39 40 41 42 43 44 45 46 47 48 49 50
000
ASUS42 KILM 281213
RWRILM
RWRILM
REGIONAL HOURLY WEATHER ROUNDUP
NATIONAL WEATHER SERVICE WILMINGTON NC
800 AM EDT THU JUL 28 2016

NOTE: "FAIR" INDICATES FEW OR NO CLOUDS BELOW 12,000 FEET WITH NO
SIGNIFICANT WEATHER AND/OR OBSTRUCTIONS TO VISIBILITY.

...............WFO WILMINGTON COUNTY WARNING AREA...............

......COASTAL NC AND SC COUNTIES......

CITY           SKY/WX    TMP DP  RH WIND       PRES   REMARKS
WILMINGTON     SUNNY     84  76  76 W8        29.96S HX  93
N MYRTLE BEACH SUNNY     83  76  79 W5        29.97R HX  91
MYRTLE BEACH   SUNNY     82  72  69 W8        29.99R

......INLAND NC AND SC COUNTIES.......

CITY           SKY/WX    TMP DP  RH WIND       PRES   REMARKS
LUMBERTON      SUNNY     81  73  76 SW9       29.95R
ELIZABETHTOWN  SUNNY     81  75  81 SW6       29.96R
WHITEVILLE     SUNNY     82  75  81 SW5       29.96R
FLORENCE       SUNNY     83  70  64 W8        29.98R
DARLINGTON     SUNNY     81  72  74 SW6       29.98R
KINGSTREE      FAIR      79  72  78 SW5       29.99R
HARTSVILLE     FAIR      79  70  73 SW6       29.97S
BENNETTSVILLE  FAIR      82  73  74 SW5       29.96R
CONWAY         FAIR      81  75  83 CALM      29.99R
GEORGETOWN     FAIR      81  73  78 W7        30.00R
MARION           N/A     79  72  78 SW5       29.98R

....................REST OF NORTH CAROLINA......................

.........EASTERN NC.........

CITY           SKY/WX    TMP DP  RH WIND       PRES   REMARKS
CAPE HATTERAS  PTSUNNY   82  78  88 S3        29.95S HX  91
JACKSONVILLE   SUNNY     82  77  84 SW7       29.96R HX  90
MOREHEAD CITY  SUNNY     83  80  91 SW10        N/A  HX  95
KENANSVILLE    NOT AVBL
NEW BERN       SUNNY     82  76  81 SW6       29.95R
ELIZABETH CITY MOSUNNY   81  76  84 SW3       29.93R

.........CENTRAL NC.........

CITY           SKY/WX    TMP DP  RH WIND       PRES   REMARKS
RALEIGH DURHAM MOSUNNY   78  73  84 CALM      29.95R
ROCKY MOUNT    SUNNY     80  77  90 CALM      29.94R
ROANOKE RAPIDS NOT AVBL
FAYETTEVILLE   SUNNY     83  73  72 SW10      29.95R
HOFFMAN        SUNNY     82  72  72 W6        29.96R

.........WESTERN NC.........

CITY           SKY/WX    TMP DP  RH WIND       PRES   REMARKS
CHARLOTTE      MOSUNNY   79  69  71 W6        29.98S
GREENSBORO     PTSUNNY   77  72  84 CALM      29.96S
HICKORY        NOT AVBL
BOONE          NOT AVBL
ASHEVILLE      NOT AVBL

.....................REST OF SOUTH CAROLINA.....................

.........EASTERN SC.........

CITY           SKY/WX    TMP DP  RH WIND       PRES   REMARKS
CHARLESTON     SUNNY     83  72  69 W8        30.01R
BEAUFORT MCAS  SUNNY     83  72  69 W8        30.03R
HILTON HEAD    SUNNY     81  72  74 SW7       30.03S

.........CENTRAL SC.........

CITY           SKY/WX    TMP DP  RH WIND       PRES   REMARKS
COLUMBIA       SUNNY     81  70  69 SW7       29.99R
ORANGEBURG     SUNNY     81  72  74 W6        30.02R
SUMTER SHAW    SUNNY     81  70  68 W9        29.97R

.........WESTERN SC.........

CITY           SKY/WX    TMP DP  RH WIND       PRES   REMARKS
GREENVILLE     NOT AVBL
ROCK HILL      SUNNY     79  68  69 W8        29.98S
ANDERSON       SUNNY     79  69  71 SW7       30.02R
CLEMSON        NOT AVBL
GREENWOOD      SUNNY     79  68  69 SW7       30.03R


...................COASTAL AND OFFSHORE REPORTS..................

................LOCAL PIERS AND NC RESERVE................


STATION/POSITION TIME  SKY/WX   TEMP    WIND        PRES    VSBY
                                AIR SEA DIR/SP/G
                 (UTC)          (F)     (DEG/KT/KT) (MB)    (MI)
JOHNY MRCER PIER 1100            82 79  260/  8/ 10 1013.3R
NC RESRV MASNBRO NOT AVBL
OCEAN CREST PIER NOT AVBL
SPRINGMAID  PIER 1100            81 84              1014.5R


................COASTAL AND OFFSHORE BUOYS................


STATION/POSITION TIME  SKY/WX   TEMP    WIND        PRES    VSBY
                                AIR SEA DIR/SP/G
                 (UTC)          (F)     (DEG/KT/KT) (MB)    (MI)
DIMNDSHOAL 41025 1150            84 84  210/  8/ 10 1014.4R
WVE H/P(F/S)=  2/ 6 SWL H/P/D(F/S/D)=  2/210/ 6

CAPE LOOKOUT     1200            84     220/  7/ 10 1013.9R
ONSLOW BAY 41036 NOT AVBL
ONSLOW BAY 41064 1108            85 84  240/ 14/ 19 1014.2R
ONSLOW BAY 41159 1125               84                N/A
WVE H/P(F/S)=  4/ 5

5SE WRITBC 41038 1108            81 80  260/ 10/ 14 1015.0R
MASNBO INL 41110 1106               80                N/A
WVE H/P(F/S)=  2/ 5

WILM HARBR 41108 1126               85                N/A
WVE H/P(F/S)=  4/ 6

27SE WRITB 41037 1108            84 84  240/ 14/ 19 1014.4R
FRYING PAN 41013 1100            85 85  250/ 16/ 19 1014.5R
SUNST NRSH 41024 1108            84 84  270/ 10/ 16 1014.4R
CAPRS NRSH 41029 1108            84 83  280/ 12/ 14 1015.5R
EDISTO     41004 1150            86 86  260/ 16/ 19 1015.5R
WVE H/P(F/S)=  4/ 6 SWL H/P/D(F/S/D)=  2/150/ 8



..........OFFSHORE BUOYS BEYOND 100 NM OFFSHORE...........
.....IN A TRIANGLE---HAT TO BERMUDA TO BAHAMAS TO HAT.....


STATION/POSITION TIME  SKY/WX   TEMP    WIND        PRES    VSBY
                                AIR SEA DIR/SP/G
                 (UTC)          (F)     (DEG/KT/KT) (MB)    (MI)
150E HAT   41001 NOT AVBL
W BERMUDA  41048 1150            83 85  310/  6/  8 1015.9R
WVE H/P(F/S)=  2/ 5 SWL H/P/D(F/S/D)=  2/290/ 5

ATLANTIC S 41049 1150            83 85  130/  4/  6 1018.2R
WVE H/P(F/S)=  3/ 8 SWL H/P/D(F/S/D)=  3/ 90/ 8

E BAHAMAS  41046 1100            82 85   70/  4/  6 1017.8R
NE BAHAMAS 41047 1100            83 85  280/  8/ 12 1017.5R
120E CANVRL41010 1120            85 87  230/  6/  8 1018.1R

END



USA.gov is the U.S. government's official web portal to all federal, state and local government web resources and services.